Location: Newark
(22.3060°N, 114.2134°E)
Time: 08:48:24
(UTC+00:00)

Tiros 1 despin weight - Visible Passes

Search period start: 31 July 2021 00:00
Search period end: 10 August 2021 00:00
Orbit: 593 x 642 km, 48.2° (Epoch: 30 July)

Date Brightness Start Highest point End Pass type
(mag) Time Alt. Az. Time Alt. Az. Time Alt. Az.
31 Jul ? 12:44:06 10° NNW 12:48:26 39° NE 12:48:40 38° NE visible
01 Aug ? 13:00:06 10° NW 13:04:19 74° NW 13:04:19 74° NW visible
02 Aug ? 11:35:31 10° NNW 11:39:21 25° NE 11:43:00 11° E visible
02 Aug ? 13:16:41 10° WNW 13:20:04 32° WSW 13:20:04 32° WSW visible
03 Aug ? 11:51:12 10° NW 11:55:45 55° NE 11:58:50 19° ESE visible
03 Aug ? 13:34:25 10° W 13:35:53 14° WSW 13:35:53 14° WSW visible
04 Aug ? 12:07:24 10° NW 12:11:59 62° SW 12:14:45 23° SSE visible
05 Aug ? 12:24:19 10° WNW 12:28:05 25° SW 12:30:46 15° S visible
07 Aug ? 11:14:49 10° WNW 11:19:13 42° SW 11:23:33 10° SSE visible
08 Aug ? 11:32:11 10° W 11:35:16 18° SW 11:38:20 10° S visible
